Weather History for EGNH - January, 2013

Change the Weather History Date:

Sunday, January 6, 2013

  Actual Average Record
Temperature  
Mean Temperature 47 °F -  
Max Temperature 50 °F 43 °F 50 °F (2005)
Min Temperature 44 °F 36 °F 19 °F (2009)
Degree Days  
Heating Degree Days 18    
Moisture  
Dew Point 46 °F    
Average Humidity 97    
Maximum Humidity 100    
Minimum Humidity 88    
Precipitation  
Precipitation 0.01 in - - ()
Sea Level Pressure  
Sea Level Pressure 30.38 in    
Wind  
Wind Speed 5 mph ()    
Max Wind Speed 10 mph    
Max Gust Speed -    
Visibility 4.4 miles    
Events Fog    
Averages and records for this station are not official NWS values.
T = Trace of Precipitation, MM = Missing Value Source: Averaged Metar Reports

Daily Weather History Graph

Daily Weather History Graph

Search for Another Location

Airport or City:

Trip Planner

Search our weather history database for the weather conditions in past years. The results will help you decide how hot, cold, wet, or windy it might be!

Date:

Astronomy

Jan. 06, 2013 Rise Set
Actual Time 8:28 AM GMT 4:08 PM GMT
Civil Twilight 7:45 AM GMT 4:50 PM GMT
Nautical Twilight 7:00 AM GMT 5:36 PM GMT
Astronomical Twilight 6:17 AM GMT 6:18 PM GMT
Moon 2:02 AM GMT (1/6) 11:46 AM GMT (1/6)
Length of Visible Light 9h 05m
Length of Day
7h 40m
Waning Crescent, 35% of the Moon is Illuminated
Jan 6
Waning Crescent
Jan 11
New
Jan 18
First Quarter
Jan 27
Full
Feb 3
Last Quarter

Hourly Weather History & Observations

Time (GMT) Temp. Windchill Dew Point Humidity Pressure Visibility Wind Dir Wind Speed Gust Speed Precip Events Conditions
2:50 AM 46 °F - 46 °F 99%  in - SSW 3.5 mph - -  
5:50 AM 47 °F - 46 °F 96%  in - NE 1.2 mph - -  
5:50 AM 46.4 °F - 46.4 °F 100% 30.48 in 0.9 mi Calm Calm - N/A   Light Drizzle
6:20 AM 46.4 °F 45.2 °F 46.4 °F 100% 30.45 in 0.9 mi SE 3.5 mph - N/A   Light Drizzle
7:20 AM 46.4 °F 42.4 °F 46.4 °F 100% 30.45 in 0.7 mi ESE 8.1 mph - N/A   Light Drizzle
7:50 AM 46.4 °F 43.5 °F 46.4 °F 100% 30.45 in 0.6 mi ESE 5.8 mph - N/A Fog Light Drizzle
8:50 AM 45 °F - 45 °F 98%  in - SE 8.1 mph - -  
8:50 AM 44.6 °F 40.2 °F 44.6 °F 100% 30.45 in 0.2 mi SE 8.1 mph - N/A Fog Light Drizzle
9:20 AM 46.4 °F 42.4 °F 46.4 °F 100% 30.42 in 0.4 mi SE 8.1 mph - N/A Fog Light Drizzle
9:50 AM 46.4 °F 42.4 °F 46.4 °F 100% 30.42 in 6.2 mi SE 8.1 mph - N/A   Mostly Cloudy
10:20 AM 48.2 °F - 48.2 °F 100% 30.42 in 5.6 mi SE 8.1 mph - N/A   Mostly Cloudy
10:50 AM 46.4 °F 41.5 °F 46.4 °F 100% 30.42 in 3.1 mi SE 10.4 mph - N/A   Mostly Cloudy
11:20 AM 48.2 °F - 46.4 °F 93% 30.42 in 2.5 mi ESE 8.1 mph - N/A   Mostly Cloudy
11:50 AM 47 °F - 47 °F 100%  in - SE 8.1 mph - -  
11:50 AM 48.2 °F - 46.4 °F 93% 30.42 in 2.5 mi SE 8.1 mph - N/A   Mostly Cloudy
12:20 PM 48.2 °F - 48.2 °F 100% 30.39 in 2.5 mi SE 9.2 mph - N/A   Mostly Cloudy
12:50 PM 48.2 °F - 48.2 °F 100% 30.39 in 2.5 mi SSE 8.1 mph - N/A   Mostly Cloudy
1:20 PM 50.0 °F - 50.0 °F 100% 30.39 in 5.0 mi SSW 5.8 mph - N/A   Mostly Cloudy
1:50 PM 50.0 °F - 50.0 °F 100% 30.36 in 6.2 mi SSW 5.8 mph - N/A   Mostly Cloudy
2:20 PM 48.2 °F - 48.2 °F 100% 30.36 in 6.2 mi SW 5.8 mph - N/A   Mostly Cloudy
2:50 PM 48.2 °F - 48.2 °F 100% 30.36 in 6.2 mi SW 5.8 mph - N/A   Mostly Cloudy
3:20 PM 48.2 °F - 46.4 °F 93% 30.36 in 6.2 mi SW 4.6 mph - N/A   Mostly Cloudy
3:50 PM 46.4 °F 44.3 °F 46.4 °F 100% 30.33 in 6.2 mi SSW 4.6 mph - N/A   Mostly Cloudy
4:20 PM 48.2 °F - 46.4 °F 93% 30.33 in 6.2 mi SSW 6.9 mph - N/A   Scattered Clouds
4:50 PM 46.4 °F 44.3 °F 46.4 °F 100% 30.33 in 6.2 mi SW 4.6 mph - N/A   Scattered Clouds
5:20 PM 46.4 °F 43.5 °F 44.6 °F 93% 30.33 in 6.2 mi South 5.8 mph - N/A   Scattered Clouds
5:50 PM 47 °F - 45 °F 88%  in - South 5.8 mph - -  
5:50 PM 46.4 °F 43.5 °F 46.4 °F 100% 30.33 in 6.2 mi South 5.8 mph - N/A   Scattered Clouds
6:20 PM 48.2 °F - 46.4 °F 93% 30.33 in 6.2 mi South 6.9 mph - N/A   Partly Cloudy
6:50 PM 46.4 °F 43.5 °F 44.6 °F 93% 30.33 in 6.2 mi SE 5.8 mph - N/A   Partly Cloudy
7:20 PM 46.4 °F 43.5 °F 44.6 °F 93% 30.33 in 6.2 mi SE 5.8 mph - N/A   Partly Cloudy
7:50 PM 46.4 °F 42.4 °F 44.6 °F 93% 30.30 in 6.2 mi SSE 8.1 mph - N/A   Partly Cloudy
8:20 PM 46.4 °F 42.4 °F 46.4 °F 100% 30.30 in 6.2 mi SSE 8.1 mph - N/A   Partly Cloudy
8:50 PM 46 °F - 44 °F 88%  in - SSE 8.1 mph - -  
8:50 PM 46.4 °F 42.9 °F 44.6 °F 93% 30.30 in 6.2 mi SSE 6.9 mph - N/A   Partly Cloudy
11:50 PM 46 °F - 44 °F 90%  in - SSE 6.9 mph - -